Torna al catalogo

COSMOS 1348 DEB

LostHEO
NORAD 32774·DEBRIS·🇷🇺 Russia

Lanciato Apr 7, 1982 da Plesetsk Cosmodrome

Loading…

Prossimi Passaggi (prossime 24 ore)

TLE

ObsoletoSource: Space-Track

Epoca: Oct 5, 2013, 11:01 UTC

1 32774U 82029H   13278.45908352  .00000012  00000-0  00000+0 0  9993
2 32774  72.9492 348.2082 4739786 122.2142 338.5339  1.95707103 62019

Traccia COSMOS 1348 DEB in tempo reale con AllMySat

Download on the App Store